Time,TemperatureF,DewpointF,PressureIn,WindDirection,WindDirectionDegrees,WindSpeedMPH,WindSpeedGustMPH,Humidity,HourlyPrecipIn,Conditions,Clouds,dailyrainin,SoftwareType,DateUTC
2013-02-26 00:02:00,32.7,29.8,28.69,NNE,23,0.0,0.0,89,0.02,,,0.00,WUHU216HW,2013-02-26 06:02:00,
2013-02-26 00:07:00,32.7,29.8,28.70,NE,45,0.0,0.0,89,0.02,,,0.00,WUHU216HW,2013-02-26 06:07:00,
2013-02-26 00:12:00,32.7,29.8,28.70,North,0,0.0,0.0,89,0.02,,,0.00,WUHU216HW,2013-02-26 06:12:00,
2013-02-26 00:17:00,32.5,29.6,28.70,North,0,12.0,22.1,89,0.02,,,0.00,WUHU216HW,2013-02-26 06:17:00,
2013-02-26 00:22:00,32.3,29.8,28.70,NNE,23,6.9,22.1,90,0.04,,,0.02,WUHU216HW,2013-02-26 06:22:00,
2013-02-26 00:27:00,32.3,29.8,28.69,North,0,21.2,22.1,90,0.04,,,0.02,WUHU216HW,2013-02-26 06:27:00,
2013-02-26 00:32:00,32.1,29.6,28.69,NNE,23,12.0,21.2,90,0.04,,,0.02,WUHU216HW,2013-02-26 06:32:00,
2013-02-26 00:37:00,32.1,29.6,28.69,North,0,14.7,16.1,90,0.04,,,0.02,WUHU216HW,2013-02-26 06:37:00,
2013-02-26 00:42:00,32.0,29.4,28.68,North,0,12.9,14.7,90,0.04,,,0.02,WUHU216HW,2013-02-26 06:42:00,
2013-02-26 00:47:00,32.0,29.4,28.68,North,0,0.0,14.7,90,0.04,,,0.02,WUHU216HW,2013-02-26 06:47:00,
2013-02-26 00:52:00,31.8,29.3,28.68,NNE,23,0.0,10.9,90,0.02,,,0.02,WUHU216HW,2013-02-26 06:52:00,
2013-02-26 00:57:00,31.8,29.3,28.67,NNE,23,0.0,0.0,90,0.02,,,0.02,WUHU216HW,2013-02-26 06:57:00,
2013-02-26 01:02:00,31.8,29.3,28.67,North,0,0.0,0.0,90,0.02,,,0.02,WUHU216HW,2013-02-26 07:02:00,
2013-02-26 01:07:00,31.8,29.3,28.67,North,0,0.0,0.0,90,0.02,,,0.02,WUHU216HW,2013-02-26 07:07:00,
2013-02-26 01:12:00,32.0,29.4,28.68,NNE,23,0.0,0.0,90,0.02,,,0.02,WUHU216HW,2013-02-26 07:12:00,
2013-02-26 01:17:00,32.0,29.4,28.67,North,0,0.0,0.0,90,0.00,,,0.02,WUHU216HW,2013-02-26 07:17:00,
2013-02-26 01:22:00,32.1,29.6,28.68,North,0,0.0,0.0,90,0.00,,,0.02,WUHU216HW,2013-02-26 07:22:00,
2013-02-26 01:27:00,32.1,29.6,28.68,North,0,0.0,0.0,90,0.00,,,0.02,WUHU216HW,2013-02-26 07:27:00,
2013-02-26 01:32:00,32.1,29.8,28.68,NNE,23,0.0,0.0,91,0.00,,,0.02,WUHU216HW,2013-02-26 07:32:00,
2013-02-26 01:37:00,32.1,29.8,28.68,North,0,0.0,0.0,91,0.00,,,0.02,WUHU216HW,2013-02-26 07:37:00,
2013-02-26 01:42:00,32.1,29.6,28.67,North,0,0.0,0.0,90,0.00,,,0.02,WUHU216HW,2013-02-26 07:42:00,
2013-02-26 01:48:00,32.1,29.6,28.66,North,0,0.0,0.0,90,0.00,,,0.02,WUHU216HW,2013-02-26 07:48:00,
2013-02-26 01:53:00,32.1,29.6,28.66,North,0,0.0,0.0,90,0.00,,,0.02,WUHU216HW,2013-02-26 07:53:00,
2013-02-26 01:58:00,32.1,29.6,28.66,North,0,0.0,0.0,90,0.00,,,0.02,WUHU216HW,2013-02-26 07:58:00,
2013-02-26 02:03:00,32.0,29.4,28.66,NNW,338,0.0,0.0,90,0.00,,,0.02,WUHU216HW,2013-02-26 08:03:00,
2013-02-26 02:08:00,32.0,29.4,28.66,North,0,0.0,0.0,90,0.00,,,0.02,WUHU216HW,2013-02-26 08:08:00,
2013-02-26 02:13:00,31.8,29.3,28.65,North,0,0.0,0.0,90,0.00,,,0.02,WUHU216HW,2013-02-26 08:13:00,
2013-02-26 02:18:00,31.8,29.3,28.64,North,0,0.0,0.0,90,0.00,,,0.02,WUHU216HW,2013-02-26 08:18:00,
2013-02-26 02:23:00,31.8,29.3,28.64,North,0,0.0,0.0,90,0.00,,,0.02,WUHU216HW,2013-02-26 08:23:00,
2013-02-26 02:28:00,31.8,29.3,28.65,North,0,0.0,0.0,90,0.00,,,0.02,WUHU216HW,2013-02-26 08:28:00,
2013-02-26 02:33:00,31.8,29.3,28.65,NNW,338,0.0,0.0,90,0.00,,,0.02,WUHU216HW,2013-02-26 08:33:00,
2013-02-26 02:38:00,31.8,29.3,28.64,North,0,0.0,0.0,90,0.00,,,0.02,WUHU216HW,2013-02-26 08:38:00,
2013-02-26 02:43:00,31.8,29.3,28.64,North,0,0.0,0.0,90,0.00,,,0.02,WUHU216HW,2013-02-26 08:43:00,
2013-02-26 02:48:00,31.8,29.3,28.64,North,0,0.0,0.0,90,0.00,,,0.02,WUHU216HW,2013-02-26 08:48:00,
2013-02-26 02:53:00,31.8,29.3,28.64,NNW,338,0.0,0.0,90,0.00,,,0.02,WUHU216HW,2013-02-26 08:53:00,
2013-02-26 02:58:00,31.8,29.3,28.63,NNW,338,0.0,0.0,90,0.00,,,0.02,WUHU216HW,2013-02-26 08:58:00,
2013-02-26 03:03:00,31.8,29.3,28.63,North,0,0.0,0.0,90,0.00,,,0.02,WUHU216HW,2013-02-26 09:03:00,
2013-02-26 03:08:00,31.8,29.3,28.63,North,0,0.0,0.0,90,0.00,,,0.02,WUHU216HW,2013-02-26 09:08:00,
2013-02-26 03:13:00,31.8,29.3,28.63,North,0,0.0,0.0,90,0.00,,,0.02,WUHU216HW,2013-02-26 09:13:00,
2013-02-26 03:18:00,31.8,29.3,28.64,NNE,23,0.0,0.0,90,0.00,,,0.02,WUHU216HW,2013-02-26 09:18:00,
2013-02-26 03:23:00,31.8,29.3,28.64,NNW,338,0.0,0.0,90,0.00,,,0.02,WUHU216HW,2013-02-26 09:23:00,
2013-02-26 03:28:00,31.8,29.3,28.64,North,0,0.0,0.0,90,0.00,,,0.02,WUHU216HW,2013-02-26 09:28:00,
2013-02-26 03:33:00,31.8,29.3,28.63,North,0,0.0,0.0,90,0.00,,,0.02,WUHU216HW,2013-02-26 09:33:00,
2013-02-26 03:38:00,31.8,29.3,28.63,North,0,0.0,0.0,90,0.00,,,0.02,WUHU216HW,2013-02-26 09:38:00,
2013-02-26 03:43:00,31.8,29.3,28.63,North,0,0.0,0.0,90,0.00,,,0.02,WUHU216HW,2013-02-26 09:43:00,
2013-02-26 03:48:00,31.8,29.3,28.63,North,0,0.0,0.0,90,0.00,,,0.02,WUHU216HW,2013-02-26 09:48:00,
2013-02-26 03:53:00,31.8,29.3,28.63,North,0,0.0,0.0,90,0.00,,,0.02,WUHU216HW,2013-02-26 09:53:00,
2013-02-26 03:58:00,31.6,29.1,28.63,NNW,338,0.0,0.0,90,0.00,,,0.02,WUHU216HW,2013-02-26 09:58:00,
2013-02-26 04:03:00,31.6,29.1,28.63,NW,315,0.0,0.0,90,0.00,,,0.02,WUHU216HW,2013-02-26 10:03:00,
2013-02-26 04:08:00,31.6,29.1,28.63,North,0,0.0,0.0,90,0.00,,,0.02,WUHU216HW,2013-02-26 10:08:00,
2013-02-26 04:13:00,31.6,29.1,28.63,NNW,338,0.0,0.0,90,0.00,,,0.02,WUHU216HW,2013-02-26 10:13:00,
2013-02-26 04:18:00,31.6,29.1,28.63,NNW,338,0.0,0.0,90,0.00,,,0.02,WUHU216HW,2013-02-26 10:18:00,
2013-02-26 04:23:00,31.6,29.1,28.63,North,0,0.0,0.0,90,0.00,,,0.02,WUHU216HW,2013-02-26 10:23:00,
2013-02-26 04:28:00,31.6,29.1,28.63,North,0,0.0,0.0,90,0.00,,,0.02,WUHU216HW,2013-02-26 10:28:00,
2013-02-26 04:33:00,31.6,29.1,28.63,North,0,0.0,0.0,90,0.00,,,0.02,WUHU216HW,2013-02-26 10:33:00,
2013-02-26 04:38:00,31.6,29.1,28.62,NNW,338,0.0,0.0,90,0.00,,,0.02,WUHU216HW,2013-02-26 10:38:00,
2013-02-26 04:43:00,31.6,29.1,28.62,NW,315,0.0,0.0,90,0.00,,,0.02,WUHU216HW,2013-02-26 10:43:00,
2013-02-26 04:48:00,31.6,29.1,28.62,North,0,0.0,0.0,90,0.00,,,0.02,WUHU216HW,2013-02-26 10:48:00,
2013-02-26 04:53:00,31.6,29.1,28.62,North,0,0.0,0.0,90,0.00,,,0.02,WUHU216HW,2013-02-26 10:53:00,
2013-02-26 04:59:00,31.6,29.1,28.62,North,0,0.0,0.0,90,0.00,,,0.02,WUHU216HW,2013-02-26 10:59:00,
2013-02-26 05:04:00,31.6,29.1,28.62,NNE,23,0.0,0.0,90,0.00,,,0.02,WUHU216HW,2013-02-26 11:04:00,
2013-02-26 05:09:00,31.6,29.1,28.61,NNW,338,0.0,0.0,90,0.00,,,0.02,WUHU216HW,2013-02-26 11:09:00,
2013-02-26 05:14:00,31.6,29.1,28.61,North,0,0.0,0.0,90,0.00,,,0.02,WUHU216HW,2013-02-26 11:14:00,
2013-02-26 05:19:00,31.6,29.3,28.61,NW,315,0.0,0.0,91,0.00,,,0.02,WUHU216HW,2013-02-26 11:19:00,
2013-02-26 05:24:00,31.6,29.3,28.62,North,0,0.0,0.0,91,0.00,,,0.02,WUHU216HW,2013-02-26 11:24:00,
2013-02-26 05:29:00,31.6,29.3,28.62,North,0,0.0,0.0,91,0.00,,,0.02,WUHU216HW,2013-02-26 11:29:00,
2013-02-26 05:34:00,31.6,29.3,28.62,North,0,0.0,0.0,91,0.00,,,0.02,WUHU216HW,2013-02-26 11:34:00,
2013-02-26 05:39:00,31.6,29.3,28.62,North,0,0.0,0.0,91,0.00,,,0.02,WUHU216HW,2013-02-26 11:39:00,
2013-02-26 05:44:00,31.6,29.3,28.62,NNE,23,0.0,0.0,91,0.00,,,0.02,WUHU216HW,2013-02-26 11:44:00,
2013-02-26 05:49:00,31.6,29.3,28.62,North,0,0.0,0.0,91,0.00,,,0.02,WUHU216HW,2013-02-26 11:49:00,
2013-02-26 05:54:00,31.6,29.3,28.62,North,0,0.0,0.0,91,0.00,,,0.02,WUHU216HW,2013-02-26 11:54:00,
2013-02-26 05:59:00,31.6,29.3,28.62,North,0,0.0,0.0,91,0.00,,,0.02,WUHU216HW,2013-02-26 11:59:00,
2013-02-26 06:04:00,31.6,29.3,28.62,North,0,0.0,0.0,91,0.00,,,0.02,WUHU216HW,2013-02-26 12:04:00,
2013-02-26 06:09:00,31.6,29.3,28.62,North,0,0.0,0.0,91,0.00,,,0.02,WUHU216HW,2013-02-26 12:09:00,
2013-02-26 06:14:00,31.6,29.3,28.63,North,0,0.0,0.0,91,0.00,,,0.02,WUHU216HW,2013-02-26 12:14:00,
2013-02-26 06:19:00,31.4,29.1,28.62,NNE,23,0.0,0.0,91,0.00,,,0.02,WUHU216HW,2013-02-26 12:19:00,
2013-02-26 06:24:00,31.2,29.0,28.63,NNW,338,0.0,0.0,91,0.00,,,0.02,WUHU216HW,2013-02-26 12:24:00,
2013-02-26 06:29:00,31.4,29.1,28.62,NNW,338,0.0,0.0,91,0.00,,,0.02,WUHU216HW,2013-02-26 12:29:00,
2013-02-26 06:34:00,31.2,29.0,28.63,NNW,338,0.0,0.0,91,0.00,,,0.02,WUHU216HW,2013-02-26 12:34:00,
2013-02-26 06:39:00,31.2,29.0,28.63,NNW,338,0.0,0.0,91,0.00,,,0.02,WUHU216HW,2013-02-26 12:39:00,
2013-02-26 06:44:00,31.2,29.0,28.63,NNW,338,0.0,0.0,91,0.00,,,0.02,WUHU216HW,2013-02-26 12:44:00,
2013-02-26 06:49:00,31.2,29.0,28.63,NNW,338,0.0,0.0,91,0.00,,,0.02,WUHU216HW,2013-02-26 12:49:00,
2013-02-26 06:55:00,31.2,29.0,28.63,NNW,338,0.0,0.0,91,0.00,,,0.02,WUHU216HW,2013-02-26 12:55:00,
2013-02-26 07:00:00,31.2,29.0,28.63,NNW,338,0.0,0.0,91,0.00,,,0.02,WUHU216HW,2013-02-26 13:00:00,
2013-02-26 07:05:00,31.2,29.0,28.63,NNW,338,0.0,0.0,91,0.00,,,0.02,WUHU216HW,2013-02-26 13:05:00,
2013-02-26 07:10:00,31.2,29.0,28.63,NNW,338,0.0,0.0,91,0.00,,,0.02,WUHU216HW,2013-02-26 13:10:00,
2013-02-26 07:15:00,31.2,29.0,28.63,NNW,338,0.0,0.0,91,0.00,,,0.02,WUHU216HW,2013-02-26 13:15:00,
2013-02-26 07:20:00,31.2,29.0,28.63,NNW,338,0.0,0.0,91,0.00,,,0.02,WUHU216HW,2013-02-26 13:20:00,
2013-02-26 07:25:00,31.2,29.0,28.63,NNW,338,0.0,0.0,91,0.00,,,0.02,WUHU216HW,2013-02-26 13:25:00,
2013-02-26 07:30:00,31.2,29.0,28.63,NNW,338,0.0,0.0,91,0.00,,,0.02,WUHU216HW,2013-02-26 13:30:00,
2013-02-26 07:35:00,31.2,29.0,28.63,NNW,338,0.0,0.0,91,0.00,,,0.02,WUHU216HW,2013-02-26 13:35:00,
2013-02-26 07:40:00,31.2,29.0,28.63,NNW,338,0.0,0.0,91,0.00,,,0.02,WUHU216HW,2013-02-26 13:40:00,
2013-02-26 07:45:00,31.4,29.1,28.63,NNW,338,0.0,0.0,91,0.00,,,0.02,WUHU216HW,2013-02-26 13:45:00,
2013-02-26 07:50:00,31.6,29.3,28.63,NNW,338,0.0,0.0,91,0.00,,,0.02,WUHU216HW,2013-02-26 13:50:00,
2013-02-26 07:55:00,31.6,29.3,28.63,NNW,338,0.0,0.0,91,0.00,,,0.02,WUHU216HW,2013-02-26 13:55:00,
2013-02-26 08:00:00,31.8,29.5,28.63,NNW,338,0.0,0.0,91,0.00,,,0.02,WUHU216HW,2013-02-26 14:00:00,
2013-02-26 08:05:00,31.8,29.5,28.63,NNW,338,0.0,0.0,91,0.00,,,0.02,WUHU216HW,2013-02-26 14:05:00,
2013-02-26 08:10:00,31.8,29.3,28.63,NNW,338,0.0,0.0,90,0.00,,,0.02,WUHU216HW,2013-02-26 14:10:00,
2013-02-26 08:16:00,31.8,29.3,28.63,NNW,338,0.0,0.0,90,0.00,,,0.02,WUHU216HW,2013-02-26 14:16:00,
2013-02-26 08:21:00,32.0,29.4,28.63,NNW,338,0.0,0.0,90,0.00,,,0.02,WUHU216HW,2013-02-26 14:21:00,
2013-02-26 08:26:00,32.1,29.6,28.63,NNW,338,0.0,0.0,90,0.00,,,0.02,WUHU216HW,2013-02-26 14:26:00,
2013-02-26 08:31:00,32.1,29.6,28.63,NNW,338,0.0,0.0,90,0.00,,,0.02,WUHU216HW,2013-02-26 14:31:00,
2013-02-26 08:36:00,32.1,29.6,28.63,NNW,338,0.0,0.0,90,0.00,,,0.02,WUHU216HW,2013-02-26 14:36:00,
2013-02-26 08:41:00,32.5,29.9,28.63,NNW,338,0.0,0.0,90,0.00,,,0.02,WUHU216HW,2013-02-26 14:41:00,
2013-02-26 08:46:00,32.5,29.9,28.64,NNW,338,0.0,0.0,90,0.00,,,0.02,WUHU216HW,2013-02-26 14:46:00,
2013-02-26 08:51:00,32.5,29.6,28.64,NNW,338,0.0,0.0,89,0.00,,,0.02,WUHU216HW,2013-02-26 14:51:00,
2013-02-26 08:56:00,32.7,29.8,28.64,NNW,338,0.0,0.0,89,0.00,,,0.02,WUHU216HW,2013-02-26 14:56:00,
2013-02-26 09:03:00,32.7,29.8,28.64,NNW,338,0.0,0.0,89,0.00,,,0.02,WUHU216HW,2013-02-26 15:03:00,
2013-02-26 09:08:00,33.0,29.8,28.64,North,0,0.0,0.0,88,0.00,,,0.02,WUHU216HW,2013-02-26 15:08:00,
2013-02-26 09:13:00,33.0,29.8,28.64,North,0,0.0,0.0,88,0.00,,,0.02,WUHU216HW,2013-02-26 15:13:00,
2013-02-26 09:18:00,33.2,29.7,28.65,NNW,338,0.0,0.0,87,0.00,,,0.02,WUHU216HW,2013-02-26 15:18:00,
2013-02-26 09:23:00,33.4,29.9,28.65,North,0,0.0,0.0,87,0.00,,,0.02,WUHU216HW,2013-02-26 15:23:00,
2013-02-26 09:28:00,33.4,29.9,28.65,North,0,0.0,0.0,87,0.00,,,0.02,WUHU216HW,2013-02-26 15:28:00,
2013-02-26 09:33:00,33.4,29.9,28.65,North,0,0.0,0.0,87,0.00,,,0.02,WUHU216HW,2013-02-26 15:33:00,
2013-02-26 09:38:00,33.2,29.7,28.65,North,0,0.0,0.0,87,0.00,,,0.02,WUHU216HW,2013-02-26 15:38:00,
2013-02-26 09:43:00,33.6,30.0,28.65,North,0,0.0,0.0,87,0.00,,,0.02,WUHU216HW,2013-02-26 15:43:00,
2013-02-26 09:48:00,34.3,30.4,28.65,North,0,0.0,0.0,86,0.00,,,0.02,WUHU216HW,2013-02-26 15:48:00,
2013-02-26 09:56:00,35.2,31.1,28.65,NNW,338,0.0,0.0,85,0.00,,,0.02,WUHU216HW,2013-02-26 15:56:00,
2013-02-26 10:01:00,34.8,30.4,28.66,NNW,338,0.0,0.0,84,0.00,,,0.02,WUHU216HW,2013-02-26 16:01:00,
2013-02-26 10:06:00,34.8,30.4,28.66,North,0,0.0,0.0,84,0.00,,,0.02,WUHU216HW,2013-02-26 16:06:00,
2013-02-26 10:11:00,34.8,30.4,28.66,North,0,0.0,0.0,84,0.00,,,0.02,WUHU216HW,2013-02-26 16:11:00,
2013-02-26 10:16:00,34.8,30.4,28.66,North,0,0.0,0.0,84,0.00,,,0.02,WUHU216HW,2013-02-26 16:16:00,
2013-02-26 10:21:00,35.2,30.5,28.67,North,0,0.0,0.0,83,0.00,,,0.02,WUHU216HW,2013-02-26 16:21:00,
2013-02-26 10:26:00,35.4,30.4,28.66,North,0,0.0,0.0,82,0.00,,,0.02,WUHU216HW,2013-02-26 16:26:00,
2013-02-26 10:32:00,35.2,30.0,28.66,NNW,338,0.0,0.0,82,0.00,,,0.02,WUHU216HW,2013-02-26 16:32:00,
2013-02-26 10:37:00,34.8,29.8,28.66,NNE,23,0.0,0.0,82,0.00,,,0.02,WUHU216HW,2013-02-26 16:37:00,
2013-02-26 10:42:00,34.7,29.6,28.67,North,0,0.0,0.0,82,0.00,,,0.02,WUHU216HW,2013-02-26 16:42:00,
2013-02-26 10:47:00,34.3,29.6,28.67,North,0,0.0,0.0,83,0.00,,,0.02,WUHU216HW,2013-02-26 16:47:00,
2013-02-26 10:52:00,34.3,29.6,28.67,North,0,0.0,0.0,83,0.00,,,0.02,WUHU216HW,2013-02-26 16:52:00,
2013-02-26 10:57:00,34.7,29.9,28.67,North,0,0.0,0.0,83,0.00,,,0.02,WUHU216HW,2013-02-26 16:57:00,
2013-02-26 11:02:00,34.8,29.8,28.67,North,0,0.0,0.0,82,0.00,,,0.02,WUHU216HW,2013-02-26 17:02:00,
2013-02-26 11:07:00,35.2,30.2,28.67,NNW,338,0.0,0.0,82,0.00,,,0.02,WUHU216HW,2013-02-26 17:07:00,
2013-02-26 11:12:00,35.2,30.2,28.67,NNW,338,0.0,0.0,82,0.02,,,0.04,WUHU216HW,2013-02-26 17:12:00,
2013-02-26 11:17:00,35.4,30.4,28.67,North,0,0.0,0.0,82,0.02,,,0.04,WUHU216HW,2013-02-26 17:17:00,
2013-02-26 11:22:00,35.7,30.4,28.67,NNE,23,0.0,0.0,81,0.02,,,0.04,WUHU216HW,2013-02-26 17:22:00,
2013-02-26 11:27:00,36.3,31.0,28.68,NNW,338,0.0,0.0,81,0.02,,,0.04,WUHU216HW,2013-02-26 17:27:00,
2013-02-26 11:32:00,36.1,30.2,28.68,North,0,0.0,0.0,79,0.02,,,0.04,WUHU216HW,2013-02-26 17:32:00,
2013-02-26 11:37:00,35.7,29.8,28.68,North,0,0.0,0.0,79,0.04,,,0.06,WUHU216HW,2013-02-26 17:37:00,
2013-02-26 11:42:00,35.4,29.8,28.68,North,0,0.0,0.0,80,0.04,,,0.06,WUHU216HW,2013-02-26 17:42:00,
2013-02-26 11:47:00,35.2,29.6,28.69,NNW,338,0.0,0.0,80,0.04,,,0.06,WUHU216HW,2013-02-26 17:47:00,
2013-02-26 11:53:00,35.2,29.6,28.69,NNW,338,0.0,0.0,80,0.04,,,0.06,WUHU216HW,2013-02-26 17:53:00,
2013-02-26 11:58:00,34.8,29.5,28.69,NNW,338,0.0,0.0,81,0.04,,,0.06,WUHU216HW,2013-02-26 17:58:00,
2013-02-26 12:03:00,34.8,29.5,28.70,North,0,0.0,0.0,81,0.06,,,0.09,WUHU216HW,2013-02-26 18:03:00,
2013-02-26 12:08:00,34.7,29.4,28.70,North,0,18.1,18.1,81,0.04,,,0.09,WUHU216HW,2013-02-26 18:08:00,
2013-02-26 12:13:00,34.8,29.5,28.70,North,0,13.6,18.1,81,0.04,,,0.09,WUHU216HW,2013-02-26 18:13:00,
2013-02-26 12:18:00,34.8,29.5,28.70,NNW,338,10.5,13.6,81,0.04,,,0.09,WUHU216HW,2013-02-26 18:18:00,
2013-02-26 12:23:00,35.2,29.6,28.70,North,0,13.1,22.3,80,0.04,,,0.09,WUHU216HW,2013-02-26 18:23:00,
2013-02-26 12:28:00,35.2,29.6,28.71,North,0,7.3,22.3,80,0.04,,,0.09,WUHU216HW,2013-02-26 18:28:00,
2013-02-26 12:33:00,34.8,29.3,28.70,NW,315,9.3,22.3,80,0.04,,,0.09,WUHU216HW,2013-02-26 18:33:00,
2013-02-26 12:38:00,34.5,28.9,28.70,North,0,15.8,22.3,80,0.04,,,0.11,WUHU216HW,2013-02-26 18:38:00,
2013-02-26 12:43:00,34.5,28.9,28.71,NNW,338,10.9,17.2,80,0.04,,,0.11,WUHU216HW,2013-02-26 18:43:00,
2013-02-26 12:48:00,34.5,28.9,28.71,North,0,19.0,19.0,80,0.04,,,0.11,WUHU216HW,2013-02-26 18:48:00,
2013-02-26 12:53:00,34.3,28.7,28.71,North,0,12.9,19.0,80,0.04,,,0.11,WUHU216HW,2013-02-26 18:53:00,
2013-02-26 12:58:00,34.3,28.7,28.71,NNW,338,25.9,25.9,80,0.02,,,0.11,WUHU216HW,2013-02-26 18:58:00,
2013-02-26 13:03:00,34.3,28.7,28.71,North,0,6.0,25.9,80,0.02,,,0.11,WUHU216HW,2013-02-26 19:03:00,
2013-02-26 13:08:00,34.1,28.5,28.71,NW,315,12.7,12.7,80,0.02,,,0.11,WUHU216HW,2013-02-26 19:08:00,
2013-02-26 13:13:00,34.3,29.0,28.70,North,0,8.5,16.5,81,0.04,,,0.11,WUHU216HW,2013-02-26 19:13:00,
2013-02-26 13:18:00,34.3,29.0,28.71,NW,315,8.7,16.5,81,0.04,,,0.12,WUHU216HW,2013-02-26 19:18:00,
2013-02-26 13:23:00,34.3,29.0,28.71,NNW,338,9.8,15.2,81,0.04,,,0.12,WUHU216HW,2013-02-26 19:23:00,
2013-02-26 13:28:00,34.8,29.5,28.70,North,0,6.9,15.2,81,0.02,,,0.12,WUHU216HW,2013-02-26 19:28:00,
2013-02-26 13:33:00,35.2,29.6,28.70,North,0,12.3,13.8,80,0.02,,,0.12,WUHU216HW,2013-02-26 19:33:00,
2013-02-26 13:38:00,35.4,29.8,28.70,NNW,338,8.9,13.8,80,0.02,,,0.12,WUHU216HW,2013-02-26 19:38:00,
2013-02-26 13:44:00,35.9,30.3,28.70,NNW,338,2.4,10.9,80,0.04,,,0.14,WUHU216HW,2013-02-26 19:44:00,
2013-02-26 13:49:00,36.3,30.4,28.70,NW,315,7.6,17.8,79,0.04,,,0.14,WUHU216HW,2013-02-26 19:49:00,
2013-02-26 13:54:00,36.3,30.0,28.70,NNE,23,6.0,17.8,78,0.04,,,0.14,WUHU216HW,2013-02-26 19:54:00,
2013-02-26 13:59:00,36.5,29.9,28.70,North,0,16.1,16.1,77,0.06,,,0.16,WUHU216HW,2013-02-26 19:59:00,
2013-02-26 14:04:00,36.5,29.9,28.71,NNW,338,10.2,16.1,77,0.06,,,0.16,WUHU216HW,2013-02-26 20:04:00,
2013-02-26 14:09:00,36.6,29.8,28.70,NNW,338,5.1,16.1,76,0.06,,,0.16,WUHU216HW,2013-02-26 20:09:00,
2013-02-26 14:14:00,36.8,29.9,28.71,North,0,15.2,15.2,76,0.06,,,0.16,WUHU216HW,2013-02-26 20:14:00,
2013-02-26 14:19:00,37.0,30.1,28.71,NNW,338,9.3,15.2,76,0.06,,,0.18,WUHU216HW,2013-02-26 20:19:00,
2013-02-26 14:24:00,36.8,29.9,28.71,NNW,338,12.9,15.2,76,0.06,,,0.18,WUHU216HW,2013-02-26 20:24:00,
2013-02-26 14:29:00,35.9,29.0,28.71,North,0,11.6,19.4,76,0.06,,,0.18,WUHU216HW,2013-02-26 20:29:00,
2013-02-26 14:34:00,35.4,28.8,28.72,NNW,338,9.3,19.4,77,0.06,,,0.18,WUHU216HW,2013-02-26 20:34:00,
2013-02-26 14:39:00,35.4,28.8,28.72,NNW,338,11.8,15.4,77,0.06,,,0.18,WUHU216HW,2013-02-26 20:39:00,
2013-02-26 14:44:00,35.2,28.6,28.72,NNW,338,20.1,20.1,77,0.06,,,0.21,WUHU216HW,2013-02-26 20:44:00,
2013-02-26 14:49:00,35.2,29.0,28.72,North,0,4.4,20.1,78,0.06,,,0.21,WUHU216HW,2013-02-26 20:49:00,
2013-02-26 14:54:00,35.2,29.0,28.72,North,0,14.0,14.0,78,0.04,,,0.21,WUHU216HW,2013-02-26 20:54:00,
2013-02-26 15:00:00,34.8,28.6,28.73,North,0,18.7,18.7,78,0.04,,,0.21,WUHU216HW,2013-02-26 21:00:00,
2013-02-26 15:05:00,34.8,28.6,28.73,NNW,338,9.1,18.7,78,0.06,,,0.21,WUHU216HW,2013-02-26 21:05:00,
2013-02-26 15:10:00,34.8,28.6,28.73,NW,315,8.2,14.5,78,0.06,,,0.23,WUHU216HW,2013-02-26 21:10:00,
2013-02-26 15:15:00,34.8,28.6,28.73,North,0,9.6,13.8,78,0.04,,,0.23,WUHU216HW,2013-02-26 21:15:00,
2013-02-26 15:20:00,34.5,28.2,28.74,NNW,338,5.3,12.9,78,0.04,,,0.23,WUHU216HW,2013-02-26 21:20:00,
2013-02-26 15:25:00,34.3,28.4,28.74,NW,315,7.6,12.9,79,0.04,,,0.23,WUHU216HW,2013-02-26 21:25:00,
2013-02-26 15:30:00,34.3,28.4,28.74,NNW,338,6.9,10.0,79,0.04,,,0.23,WUHU216HW,2013-02-26 21:30:00,
2013-02-26 15:35:00,34.3,28.1,28.74,NNW,338,15.2,15.2,79,0.04,,,0.23,WUHU216HW,2013-02-26 21:35:00,
2013-02-26 15:40:00,34.1,28.2,28.75,North,0,3.8,15.2,79,0.02,,,0.23,WUHU216HW,2013-02-26 21:40:00,
2013-02-26 15:45:00,34.1,28.5,28.75,NNW,338,7.8,15.2,80,0.02,,,0.23,WUHU216HW,2013-02-26 21:45:00,
2013-02-26 15:50:00,34.1,28.5,28.75,NW,315,9.1,11.8,80,0.02,,,0.23,WUHU216HW,2013-02-26 21:50:00,
2013-02-26 15:55:00,33.9,28.4,28.75,NNW,338,6.2,9.1,80,0.02,,,0.23,WUHU216HW,2013-02-26 21:55:00,
2013-02-26 16:00:00,33.6,28.3,28.75,NNW,338,11.6,11.6,81,0.02,,,0.23,WUHU216HW,2013-02-26 22:00:00,
2013-02-26 16:05:00,33.4,28.4,28.76,North,0,13.8,13.8,82,0.00,,,0.23,WUHU216HW,2013-02-26 22:05:00,
2013-02-26 16:10:00,33.4,28.4,28.76,NNW,338,3.3,13.8,82,0.02,,,0.25,WUHU216HW,2013-02-26 22:10:00,
2013-02-26 16:15:00,33.4,28.4,28.76,North,0,6.2,13.8,82,0.02,,,0.25,WUHU216HW,2013-02-26 22:15:00,
2013-02-26 16:20:00,33.4,28.4,28.76,NNW,338,6.4,12.3,82,0.02,,,0.25,WUHU216HW,2013-02-26 22:20:00,
2013-02-26 16:25:00,33.4,28.4,28.76,NNW,338,13.4,13.4,82,0.02,,,0.25,WUHU216HW,2013-02-26 22:25:00,
2013-02-26 16:30:00,33.6,28.6,28.76,NNW,338,8.9,13.4,82,0.02,,,0.25,WUHU216HW,2013-02-26 22:30:00,
2013-02-26 16:36:00,33.6,28.6,28.76,NNW,338,7.6,11.6,82,0.02,,,0.25,WUHU216HW,2013-02-26 22:36:00,
2013-02-26 16:41:00,33.6,28.6,28.77,NNW,338,6.9,8.9,82,0.02,,,0.25,WUHU216HW,2013-02-26 22:41:00,
2013-02-26 16:46:00,33.6,28.6,28.77,NW,315,8.7,8.7,82,0.02,,,0.25,WUHU216HW,2013-02-26 22:46:00,
2013-02-26 16:51:00,33.2,28.5,28.77,NNW,338,6.7,9.1,83,0.02,,,0.25,WUHU216HW,2013-02-26 22:51:00,
2013-02-26 16:56:00,32.9,28.2,28.77,NW,315,6.4,9.1,83,0.02,,,0.25,WUHU216HW,2013-02-26 22:56:00,
2013-02-26 17:01:00,32.7,28.4,28.77,NNW,338,9.3,9.3,84,0.02,,,0.25,WUHU216HW,2013-02-26 23:01:00,
2013-02-26 17:06:00,32.5,28.2,28.78,NNW,338,7.1,10.9,84,0.00,,,0.25,WUHU216HW,2013-02-26 23:06:00,
2013-02-26 17:11:00,32.5,28.5,28.78,NNW,338,6.9,10.9,85,0.00,,,0.25,WUHU216HW,2013-02-26 23:11:00,
2013-02-26 17:16:00,32.5,28.5,28.78,NW,315,7.3,9.1,85,0.00,,,0.25,WUHU216HW,2013-02-26 23:16:00,
2013-02-26 17:21:00,32.3,28.3,28.78,NNW,338,9.6,9.6,85,0.00,,,0.25,WUHU216HW,2013-02-26 23:21:00,
2013-02-26 17:26:00,32.1,28.2,28.78,NW,315,7.1,9.6,85,0.00,,,0.25,WUHU216HW,2013-02-26 23:26:00,
2013-02-26 17:31:00,32.1,28.2,28.78,NNW,338,10.0,10.0,85,0.00,,,0.25,WUHU216HW,2013-02-26 23:31:00,
2013-02-26 17:36:00,32.1,28.2,28.78,North,0,5.8,15.6,85,0.00,,,0.25,WUHU216HW,2013-02-26 23:36:00,
2013-02-26 17:41:00,32.1,28.2,28.79,NNW,338,8.9,15.6,85,0.00,,,0.25,WUHU216HW,2013-02-26 23:41:00,
2013-02-26 17:46:00,32.1,28.4,28.79,NNW,338,14.5,14.5,86,0.00,,,0.25,WUHU216HW,2013-02-26 23:46:00,
2013-02-26 17:51:00,31.8,28.1,28.79,North,0,7.6,14.5,86,0.00,,,0.25,WUHU216HW,2013-02-26 23:51:00,
2013-02-26 17:56:00,31.8,28.1,28.79,NW,315,13.1,14.5,86,0.00,,,0.25,WUHU216HW,2013-02-26 23:56:00,
2013-02-26 18:01:00,31.8,28.1,28.79,NW,315,6.4,13.1,86,0.00,,,0.25,WUHU216HW,2013-02-27 00:01:00,
2013-02-26 18:06:00,31.8,28.1,28.79,NNW,338,6.9,8.9,86,0.00,,,0.25,WUHU216HW,2013-02-27 00:06:00,
2013-02-26 18:11:00,31.8,28.1,28.80,NW,315,3.3,6.9,86,0.00,,,0.25,WUHU216HW,2013-02-27 00:11:00,
2013-02-26 18:16:00,31.8,28.1,28.80,NNW,338,4.9,6.7,86,0.00,,,0.25,WUHU216HW,2013-02-27 00:16:00,
2013-02-26 18:21:00,31.6,27.9,28.80,North,0,2.0,9.6,86,0.00,,,0.25,WUHU216HW,2013-02-27 00:21:00,
2013-02-26 18:26:00,31.6,27.9,28.81,NNW,338,4.0,9.6,86,0.00,,,0.25,WUHU216HW,2013-02-27 00:26:00,
2013-02-26 18:31:00,31.6,27.9,28.81,NNW,338,5.8,7.1,86,0.00,,,0.25,WUHU216HW,2013-02-27 00:31:00,
2013-02-26 18:36:00,31.6,28.2,28.82,NNW,338,0.0,9.6,87,0.00,,,0.25,WUHU216HW,2013-02-27 00:36:00,
2013-02-26 18:41:00,31.6,28.2,28.82,NNW,338,6.9,9.6,87,0.00,,,0.25,WUHU216HW,2013-02-27 00:41:00,
2013-02-26 18:46:00,31.6,28.2,28.82,NNW,338,9.3,9.3,87,0.00,,,0.25,WUHU216HW,2013-02-27 00:46:00,
2013-02-26 18:51:00,31.6,28.2,28.82,North,0,1.5,9.3,87,0.00,,,0.25,WUHU216HW,2013-02-27 00:51:00,
2013-02-26 18:56:00,31.6,27.9,28.83,NW,315,1.3,9.3,86,0.00,,,0.25,WUHU216HW,2013-02-27 00:56:00,
2013-02-26 19:01:00,31.6,27.9,28.83,NW,315,7.3,7.3,86,0.00,,,0.25,WUHU216HW,2013-02-27 01:01:00,
2013-02-26 19:06:00,31.6,27.9,28.83,NW,315,6.9,7.3,86,0.00,,,0.25,WUHU216HW,2013-02-27 01:06:00,
2013-02-26 19:11:00,31.6,27.9,28.84,NW,315,3.5,10.0,86,0.00,,,0.25,WUHU216HW,2013-02-27 01:11:00,
2013-02-26 19:16:00,31.6,27.9,28.84,NNW,338,5.8,10.0,86,0.00,,,0.25,WUHU216HW,2013-02-27 01:16:00,
2013-02-26 19:22:00,31.6,28.2,28.84,NNW,338,6.7,8.5,87,0.00,,,0.25,WUHU216HW,2013-02-27 01:22:00,
2013-02-26 19:27:00,31.6,28.2,28.85,NW,315,0.0,8.5,87,0.00,,,0.25,WUHU216HW,2013-02-27 01:27:00,
2013-02-26 19:32:00,31.6,27.9,28.85,WNW,293,2.9,4.4,86,0.00,,,0.25,WUHU216HW,2013-02-27 01:32:00,
2013-02-26 19:37:00,31.4,27.7,28.85,WNW,293,0.0,6.2,86,0.00,,,0.25,WUHU216HW,2013-02-27 01:37:00,
2013-02-26 19:42:00,31.2,27.6,28.85,NW,315,2.2,6.2,86,0.00,,,0.25,WUHU216HW,2013-02-27 01:42:00,
2013-02-26 19:47:00,31.2,27.6,28.86,NW,315,0.0,2.2,86,0.00,,,0.25,WUHU216HW,2013-02-27 01:47:00,
2013-02-26 19:52:00,31.2,27.6,28.86,NW,315,5.1,5.1,86,0.00,,,0.25,WUHU216HW,2013-02-27 01:52:00,
2013-02-26 19:57:00,31.2,27.8,28.86,NW,315,5.5,5.5,87,0.00,,,0.25,WUHU216HW,2013-02-27 01:57:00,
2013-02-26 20:02:00,31.2,27.8,28.86,NW,315,3.8,5.5,87,0.00,,,0.25,WUHU216HW,2013-02-27 02:02:00,
2013-02-26 20:07:00,31.2,27.8,28.87,NW,315,0.0,3.8,87,0.00,,,0.25,WUHU216HW,2013-02-27 02:07:00,
2013-02-26 20:12:00,31.2,27.8,28.87,NW,315,0.0,3.8,87,0.00,,,0.25,WUHU216HW,2013-02-27 02:12:00,
2013-02-26 20:18:00,31.2,27.8,28.88,WNW,293,0.0,2.4,87,0.00,,,0.25,WUHU216HW,2013-02-27 02:18:00,
2013-02-26 20:23:00,31.2,27.8,28.88,WNW,293,1.1,2.4,87,0.00,,,0.25,WUHU216HW,2013-02-27 02:23:00,
2013-02-26 20:28:00,31.2,27.8,28.89,NW,315,3.5,3.5,87,0.00,,,0.25,WUHU216HW,2013-02-27 02:28:00,
2013-02-26 20:33:00,31.2,27.8,28.89,NW,315,0.0,3.5,87,0.00,,,0.25,WUHU216HW,2013-02-27 02:33:00,
2013-02-26 20:38:00,31.2,27.8,28.89,NW,315,1.7,1.7,87,0.00,,,0.25,WUHU216HW,2013-02-27 02:38:00,
2013-02-26 20:43:00,31.2,27.8,28.89,West,270,3.8,4.9,87,0.00,,,0.25,WUHU216HW,2013-02-27 02:43:00,
2013-02-26 20:49:00,31.2,27.8,28.89,WSW,248,3.5,4.9,87,0.00,,,0.25,WUHU216HW,2013-02-27 02:49:00,
2013-02-26 20:54:00,31.2,27.8,28.90,West,270,0.0,3.8,87,0.00,,,0.25,WUHU216HW,2013-02-27 02:54:00,
2013-02-26 20:59:00,31.2,27.8,28.90,West,270,0.0,5.1,87,0.00,,,0.25,WUHU216HW,2013-02-27 02:59:00,
2013-02-26 21:04:00,31.2,27.8,28.90,NNW,338,2.4,5.1,87,0.00,,,0.25,WUHU216HW,2013-02-27 03:04:00,
2013-02-26 21:09:00,31.2,27.8,28.90,West,270,0.0,2.4,87,0.00,,,0.25,WUHU216HW,2013-02-27 03:09:00,
2013-02-26 21:14:00,31.2,27.8,28.90,WNW,293,0.0,1.3,87,0.00,,,0.25,WUHU216HW,2013-02-27 03:14:00,
2013-02-26 21:19:00,31.2,27.8,28.90,NNW,338,2.0,2.0,87,0.00,,,0.25,WUHU216HW,2013-02-27 03:19:00,
2013-02-26 21:25:00,31.2,27.8,28.90,NNW,338,2.0,2.0,87,0.00,,,0.25,WUHU216HW,2013-02-27 03:25:00,
2013-02-26 21:30:00,31.2,27.8,28.91,NW,315,2.6,2.6,87,0.00,,,0.25,WUHU216HW,2013-02-27 03:30:00,
2013-02-26 21:35:00,31.2,27.8,28.91,NW,315,5.1,7.8,87,0.00,,,0.25,WUHU216HW,2013-02-27 03:35:00,
2013-02-26 21:40:00,31.2,27.8,28.91,NW,315,6.9,7.8,87,0.00,,,0.25,WUHU216HW,2013-02-27 03:40:00,
2013-02-26 21:45:00,31.2,27.8,28.91,NW,315,0.0,10.5,87,0.00,,,0.25,WUHU216HW,2013-02-27 03:45:00,
2013-02-26 21:50:00,31.2,27.8,28.91,NW,315,3.8,10.7,87,0.00,,,0.25,WUHU216HW,2013-02-27 03:50:00,
2013-02-26 21:55:00,31.2,27.6,28.91,NNW,338,0.0,10.7,86,0.00,,,0.25,WUHU216HW,2013-02-27 03:55:00,
2013-02-26 22:00:00,31.2,27.6,28.91,NW,315,4.6,4.6,86,0.00,,,0.25,WUHU216HW,2013-02-27 04:00:00,
2013-02-26 22:05:00,31.2,27.6,28.91,WNW,293,5.1,5.1,86,0.00,,,0.25,WUHU216HW,2013-02-27 04:05:00,
2013-02-26 22:10:00,31.1,27.4,28.91,NNW,338,11.4,11.4,86,0.00,,,0.25,WUHU216HW,2013-02-27 04:10:00,
2013-02-26 22:15:00,31.1,27.4,28.91,WNW,293,11.4,11.4,86,0.00,,,0.25,WUHU216HW,2013-02-27 04:15:00,
2013-02-26 22:20:00,30.9,27.2,28.91,NW,315,0.0,11.4,86,0.00,,,0.25,WUHU216HW,2013-02-27 04:20:00,
2013-02-26 22:25:00,30.9,27.2,28.91,NW,315,2.0,8.2,86,0.00,,,0.25,WUHU216HW,2013-02-27 04:25:00,
2013-02-26 22:30:00,30.9,27.2,28.91,NW,315,6.2,7.3,86,0.00,,,0.25,WUHU216HW,2013-02-27 04:30:00,
2013-02-26 22:35:00,30.7,27.0,28.91,NNW,338,7.3,7.3,86,0.00,,,0.25,WUHU216HW,2013-02-27 04:35:00,
2013-02-26 22:40:00,30.7,27.0,28.91,NNW,338,6.2,8.9,86,0.00,,,0.25,WUHU216HW,2013-02-27 04:40:00,
2013-02-26 22:45:00,30.7,27.0,28.91,North,0,12.9,12.9,86,0.00,,,0.25,WUHU216HW,2013-02-27 04:45:00,
2013-02-26 22:50:00,30.7,27.0,28.91,NNW,338,17.0,17.0,86,0.00,,,0.25,WUHU216HW,2013-02-27 04:50:00,
2013-02-26 22:55:00,30.7,27.0,28.91,NNW,338,6.7,17.0,86,0.00,,,0.25,WUHU216HW,2013-02-27 04:55:00,
2013-02-26 23:00:00,30.7,27.0,28.91,NNW,338,5.1,18.1,86,0.00,,,0.25,WUHU216HW,2013-02-27 05:00:00,
2013-02-26 23:01:00,30.7,27.0,28.91,NNW,338,11.8,18.1,86,0.00,,,0.25,WUHU216HW,2013-02-27 05:01:00,
2013-02-26 23:06:00,30.5,26.8,28.91,NNW,338,8.0,18.1,86,0.00,,,0.25,WUHU216HW,2013-02-27 05:06:00,
2013-02-26 23:11:00,30.5,26.8,28.92,NNW,338,2.2,12.0,86,0.00,,,0.25,WUHU216HW,2013-02-27 05:11:00,
2013-02-26 23:16:00,30.5,26.8,28.92,NNW,338,6.0,12.0,86,0.00,,,0.25,WUHU216HW,2013-02-27 05:16:00,
2013-02-26 23:21:00,30.5,26.8,28.91,North,0,7.8,10.2,86,0.00,,,0.25,WUHU216HW,2013-02-27 05:21:00,
2013-02-26 23:26:00,30.5,26.8,28.92,NNW,338,7.1,12.7,86,0.00,,,0.25,WUHU216HW,2013-02-27 05:26:00,
2013-02-26 23:31:00,30.5,26.8,28.91,NW,315,2.2,12.7,86,0.00,,,0.25,WUHU216HW,2013-02-27 05:31:00,
2013-02-26 23:36:00,30.5,26.8,28.92,NW,315,0.0,8.7,86,0.00,,,0.25,WUHU216HW,2013-02-27 05:36:00,
2013-02-26 23:41:00,30.5,26.8,28.92,NNW,338,6.9,14.7,86,0.00,,,0.25,WUHU216HW,2013-02-27 05:41:00,
2013-02-26 23:46:00,30.5,26.8,28.91,NNW,338,5.5,14.7,86,0.00,,,0.25,WUHU216HW,2013-02-27 05:46:00,
2013-02-26 23:51:00,30.3,26.7,28.91,NNW,338,7.8,7.8,86,0.00,,,0.25,WUHU216HW,2013-02-27 05:51:00,
2013-02-26 23:56:00,30.3,26.7,28.91,NNW,338,0.8,7.8,86,0.00,,,0.25,WUHU216HW,2013-02-27 05:56:00,